Location: Acheville
(50.3840°N, 2.8827°E)
Time: 18:22:52
(UTC+00:00)

CSL-04 DEB - Visible Passes

Search period start: 11 August 2022 00:00
Search period end: 21 August 2022 00:00
Orbit: 542 x 622 km, 98.7° (Epoch: 11 August)

Date Brightness Start Highest point End Pass type
(mag) Time Alt. Az. Time Alt. Az. Time Alt. Az.
11 Aug 5.1 22:06:11 10° NNE 22:09:42 38° E 22:09:42 38° E visible
11 Aug 6.2 23:41:49 10° N 23:45:05 24° WNW 23:46:05 22° W visible
12 Aug 4.9 22:11:44 10° NNE 22:15:15 42° E 22:15:15 42° E visible
12 Aug 6.3 23:47:31 10° N 23:50:38 22° WNW 23:51:37 20° W visible
13 Aug 4.8 22:17:18 10° NNE 22:20:47 47° ENE 22:20:47 47° ENE visible
13 Aug 6.4 23:53:15 10° NNW 23:56:11 20° WNW 23:57:09 18° W visible
14 Aug 4.7 22:22:52 10° NNE 22:26:19 51° ENE 22:26:19 51° ENE visible
14 Aug 6.6 23:59:00 10° NNW 00:01:43 18° WNW 00:02:41 16° WNW visible
15 Aug 4.7 22:28:26 10° NNE 22:31:51 55° ENE 22:31:51 55° ENE visible
16 Aug 6.7 00:04:45 10° NNW 00:07:15 16° WNW 00:08:13 15° WNW visible
16 Aug 4.7 22:34:01 10° NNE 22:37:22 58° NE 22:37:22 58° NE visible
17 Aug 6.8 00:10:33 10° NNW 00:12:46 15° WNW 00:13:44 14° WNW visible
17 Aug 4.7 22:39:35 10° NNE 22:42:54 59° NNE 22:42:54 59° NNE visible
18 Aug 6.9 00:16:22 10° NNW 00:18:17 13° NW 00:19:16 12° WNW visible
18 Aug 4.8 22:45:11 10° NNE 22:48:25 57° NNE 22:48:25 57° NNE visible
19 Aug 7.0 00:22:16 10° NNW 00:23:47 12° NW 00:24:47 11° WNW visible
19 Aug 4.9 22:50:46 10° NNE 22:53:56 54° N 22:53:56 54° N visible
20 Aug 7.1 00:28:18 10° NW 00:29:17 11° NW 00:30:17 10° WNW visible
20 Aug 6.7 21:22:44 10° ENE 21:23:04 11° ENE 21:23:04 11° ENE visible
20 Aug 5.1 22:56:21 10° N 22:59:26 50° N 22:59:26 50° N visible
